W4SNA-2 Weather Reports


time (UTC)temp
F
wind
direction
speed
knots
gust
knots
rain 1hr
in
rain 24hr
in
rain mn
in
humidity
%
barometer
mb
20260506093149 57 196 7.8 13.9 0.00 0.00 0.00 87 1013.5
20260506092649 57 197 7.8 13.9 0.00 0.00 0.00 87 1013.4
20260506092149 57 196 7.0 14.8 0.00 0.00 0.00 87 1013.6
20260506091649 57 198 7.8 14.8 0.00 0.00 0.00 87 1013.7
20260506091149 57 197 7.0 15.6 0.00 0.00 0.00 87 1013.6
20260506090650 57 196 7.0 15.6 0.00 0.00 0.00 87 1013.8
20260506090149 57 198 7.0 13.9 0.00 0.00 0.00 87 1013.7
20260506085649 57 200 7.8 13.0 0.00 0.00 0.00 86 1013.9
20260506084621 57 191 6.1 13.0 0.00 0.00 0.00 86 1013.9
20260506083838 57 192 6.1 13.9 0.00 0.00 0.00 86 1014.0
20260506083339 57 193 7.8 13.9 0.00 0.00 0.00 86 1013.8
20260506082838 57 194 7.0 13.0 0.00 0.00 0.00 85 1013.8
20260506082338 57 195 7.0 14.8 0.00 0.00 0.00 85 1014.0
20260506081839 57 185 7.0 14.8 0.00 0.00 0.00 85 1013.9
20260506081338 58 196 7.8 14.8 0.00 0.00 0.00 84 1013.9
20260506080839 58 186 7.8 15.6 0.00 0.00 0.00 84 1013.9
20260506080338 58 200 9.6 16.5 0.00 0.00 0.00 84 1013.9
20260506073338 58 187 7.0 15.6 0.00 0.00 0.00 83 1014.3
20260506072838 58 198 7.8 15.6 0.00 0.00 0.00 83 1014.3
20260506072338 58 194 7.8 15.6 0.00 0.00 0.00 82 1014.2
20260506071839 58 192 7.0 19.1 0.00 0.00 0.00 82 1014.1
20260506071339 58 198 8.7 26.1 0.00 0.00 0.00 82 1013.9
20260506070841 58 190 11.3 26.9 0.00 0.00 0.00 81 1014.0
20260506070338 58 197 8.7 26.9 0.00 0.00 0.00 81 1014.1
20260506062338 59 191 9.6 17.4 0.00 0.00 0.00 79 1014.6
20260506061838 59 190 8.7 20.0 0.00 0.00 0.00 79 1014.4
20260506061338 59 187 9.6 20.0 0.00 0.00 0.00 78 1014.5
20260506060838 59 194 9.6 18.2 0.00 0.00 0.00 78 1014.5
20260506060338 59 188 7.8 18.2 0.00 0.00 0.00 77 1014.4
20260506051154 61 192 9.6 17.4 0.00 0.00 0.00 72 1014.6
20260506050654 61 190 9.6 15.6 0.00 0.00 0.00 71 1014.5
20260506050154 61 190 8.7 16.5 0.00 0.00 0.00 71 1014.5
20260506044635 62 195 10.4 19.1 0.00 0.00 0.00 69 1014.8
20260506044136 62 192 9.6 19.1 0.00 0.00 0.00 68 1014.8
20260506043637 62 193 9.6 18.2 0.00 0.00 0.00 67 1014.7
20260506043135 62 197 9.6 16.5 0.00 0.00 0.00 67 1014.7
20260506042636 62 192 9.6 17.4 0.00 0.00 0.00 67 1014.7
20260506042137 62 185 7.8 17.4 0.00 0.00 0.00 66 1014.6
20260506041520 62 192 9.6 20.0 0.00 0.00 0.00 65 1014.7
20260506041020 62 199 10.4 17.4 0.00 0.00 0.00 64 1014.8
20260506040520 63 195 9.6 17.4 0.00 0.00 0.00 63 1014.9
20260506040020 63 197 9.6 16.5 0.00 0.00 0.00 63 1015.0
20260506035521 63 190 7.8 16.5 0.00 0.00 0.00 62 1014.9
20260506035020 63 188 7.8 16.5 0.00 0.00 0.00 61 1014.9
20260506034521 63 198 7.8 14.8 0.00 0.00 0.00 61 1014.9
20260506034020 63 198 8.7 16.5 0.00 0.00 0.00 61 1014.9
20260506033522 63 194 7.8 16.5 0.00 0.00 0.00 60 1014.8
20260506033020 63 195 7.0 13.9 0.00 0.00 0.00 60 1015.0
20260506032520 64 198 6.1 13.0 0.00 0.00 0.00 59 1015.0
20260506032020 64 192 5.2 13.0 0.00 0.00 0.00 59 1015.0
20260506031522 64 198 6.1 11.3 0.00 0.00 0.00 58 1015.1
20260506031020 64 189 5.2 11.3 0.00 0.00 0.00 58 1015.1
20260506030521 64 195 6.1 10.4 0.00 0.00 0.00 58 1015.1
20260506030020 64 199 7.0 13.0 0.00 0.00 0.00 57 1015.2
20260506025521 64 196 7.0 13.0 0.00 0.00 0.00 57 1015.4
20260506025020 64 199 6.1 13.9 0.00 0.00 0.00 57 1015.3
20260506024520 64 197 7.0 13.9 0.00 0.00 0.00 57 1015.3
20260506024020 65 197 6.1 14.8 0.00 0.00 0.00 57 1015.3
20260506023520 65 199 5.2 14.8 0.00 0.00 0.00 56 1015.4
20260506023020 65 196 5.2 15.6 0.00 0.00 0.00 56 1015.2
20260506022520 65 200 6.1 15.6 0.00 0.00 0.00 55 1015.4
20260506022020 66 198 5.2 13.0 0.00 0.00 0.00 55 1015.5
20260506021520 66 198 5.2 12.2 0.00 0.00 0.00 55 1015.4
20260506021020 66 192 5.2 12.2 0.00 0.00 0.00 55 1015.5
20260506020520 66 200 4.3 12.2 0.00 0.00 0.00 55 1015.5
20260506020020 66 194 5.2 15.6 0.00 0.00 0.00 54 1015.5
20260506015520 66 194 5.2 15.6 0.00 0.00 0.00 54 1015.4
20260506015020 66 195 5.2 14.8 0.00 0.00 0.00 53 1015.4
20260506014521 66 195 5.2 13.0 0.00 0.00 0.00 54 1015.5
20260506014020 66 198 6.1 9.6 0.00 0.00 0.00 54 1015.5
20260506013521 66 200 3.5 11.3 0.00 0.00 0.00 54 1015.5
20260506013020 66 196 3.5 11.3 0.00 0.00 0.00 54 1015.5
20260506012521 66 197 3.5 12.2 0.00 0.00 0.00 53 1015.6
20260506012020 67 204 4.3 12.2 0.00 0.00 0.00 53 1015.5
20260506011521 67 198 3.5 10.4 0.00 0.00 0.00 53 1015.5
20260506011020 66 200 3.5 13.0 0.00 0.00 0.00 53 1015.5
20260506010521 66 194 4.3 13.0 0.00 0.00 0.00 53 1015.4
20260506010020 66 197 4.3 12.2 0.00 0.00 0.00 53 1015.3
20260506005521 66 199 5.2 12.2 0.00 0.00 0.00 53 1015.2
20260506005020 66 206 3.5 13.0 0.00 0.00 0.00 53 1015.2
20260506004521 67 195 4.3 13.0 0.00 0.00 0.00 53 1015.1
20260506004020 67 195 4.3 12.2 0.00 0.00 0.00 52 1015.2
20260506003521 67 196 4.3 10.4 0.00 0.00 0.00 52 1015.1
20260506003020 67 203 3.5 10.4 0.00 0.00 0.00 52 1015.2
20260506002522 67 198 4.3 10.4 0.00 0.00 0.00 52 1015.2
20260506002020 67 197 3.5 10.4 0.00 0.00 0.00 51 1015.1
20260506001521 67 194 3.5 13.9 0.00 0.00 0.00 51 1015.1
20260506001020 67 199 4.3 13.9 0.00 0.00 0.00 50 1015.1
20260506000521 67 196 6.1 15.6 0.00 0.00 0.00 50 1015.0
20260506000020 68 200 3.5 15.6 0.00 0.00 0.00 50 1015.0
20260505235521 68 195 4.3 11.3 0.00 0.00 0.00 50 1014.9
20260505235024 68 205 5.2 11.3 0.00 0.00 0.00 50 1015.0
20260505234524 68 198 5.2 10.4 0.00 0.00 0.00 49 1014.9
20260505234021 68 202 3.5 11.3 0.00 0.00 0.00 49 1014.9
20260505233524 68 200 4.3 12.2 0.00 0.00 0.00 48 1015.0
20260505233022 68 198 5.2 12.2 0.00 0.00 0.00 48 1014.7
20260505232521 68 196 6.1 13.0 0.00 0.00 0.00 48 1014.6
20260505232020 68 192 4.3 13.0 0.00 0.00 0.00 49 1014.7
20260505231524 68 196 5.2 12.2 0.00 0.00 0.00 49 1014.8
20260505231022 68 197 4.3 12.2 0.00 0.00 0.00 49 1014.9
20260505230527 69 197 3.5 10.4 0.00 0.00 0.00 49 1014.8
20260505230023 69 194 4.3 14.8 0.00 0.00 0.00 48 1014.9
20260505225522 69 196 4.3 14.8 0.00 0.00 0.00 48 1014.7
20260505225020 69 196 4.3 13.0 0.00 0.00 0.00 48 1014.7
20260505224522 69 198 6.1 15.6 0.00 0.00 0.00 47 1014.6
20260505224020 69 191 5.2 15.6 0.00 0.00 0.00 47 1014.6
20260505223437 69 194 5.2 13.9 0.00 0.00 0.00 47 1014.8
20260505222940 69 197 4.3 14.8 0.00 0.00 0.00 47 1014.9
20260505222437 69 192 5.2 14.8 0.00 0.00 0.00 47 1014.7
20260505221939 70 197 5.2 14.8 0.00 0.00 0.00 46 1014.8
20260505221438 70 203 6.1 14.8 0.00 0.00 0.00 46 1014.9
20260505220938 70 199 4.3 12.2 0.00 0.00 0.00 46 1014.9
20260505220437 70 196 6.1 12.2 0.00 0.00 0.00 45 1015.0
20260505215941 70 195 5.2 12.2 0.00 0.00 0.00 46 1014.9
20260505215437 70 189 4.3 13.0 0.00 0.00 0.00 46 1015.0
20260505214940 70 200 5.2 13.0 0.00 0.00 0.00 46 1015.0
20260505214439 70 199 5.2 13.0 0.00 0.00 0.00 45 1015.0
20260505213938 70 192 4.3 12.2 0.00 0.00 0.00 45 1015.2
20260505213437 70 190 3.5 13.9 0.00 0.00 0.00 45 1015.2
20260505212938 70 196 6.1 14.8 0.00 0.00 0.00 44 1015.0
20260505212437 71 196 5.2 14.8 0.00 0.00 0.00 44 1015.1
20260505211938 71 197 7.0 13.9 0.00 0.00 0.00 43 1015.0
20260505211437 71 195 5.2 15.6 0.00 0.00 0.00 44 1015.2
20260505210939 71 201 6.1 15.6 0.00 0.00 0.00 43 1015.2
20260505210437 71 199 7.0 17.4 0.00 0.00 0.00 42 1015.2
20260505205937 70 193 7.0 17.4 0.00 0.00 0.00 42 1015.2
20260505205437 70 192 6.1 14.8 0.00 0.00 0.00 42 1015.4
20260505204938 71 199 5.2 16.5 0.00 0.00 0.00 40 1015.4
20260505204437 71 195 7.0 16.5 0.00 0.00 0.00 38 1015.3
20260505203938 71 194 5.2 15.6 0.00 0.00 0.00 40 1015.3
20260505203437 71 202 7.0 15.6 0.00 0.00 0.00 41 1015.3
20260505202938 72 192 6.1 15.6 0.00 0.00 0.00 42 1015.1
20260505202437 72 186 6.1 16.5 0.00 0.00 0.00 42 1015.2
20260505201937 72 183 6.1 16.5 0.00 0.00 0.00 41 1015.0
20260505201439 71 191 8.7 16.5 0.00 0.00 0.00 41 1015.1
20260505200939 71 195 7.0 14.8 0.00 0.00 0.00 40 1015.4
20260505200414 71 186 7.0 15.6 0.00 0.00 0.00 42 1015.4
20260505195914 72 197 8.7 15.6 0.00 0.00 0.00 39 1015.2
20260505195415 72 186 5.2 16.5 0.00 0.00 0.00 41 1015.3
20260505194914 72 194 8.7 16.5 0.00 0.00 0.00 39 1015.4
20260505194414 73 184 7.0 15.6 0.00 0.00 0.00 42 1015.5
20260505193914 72 199 6.1 15.6 0.00 0.00 0.00 43 1015.8
20260505193336 73 172 3.5 13.0 0.00 0.00 0.00 43 1015.8
20260505192803 72 182 5.2 16.5 0.00 0.00 0.00 41 1015.9
20260505192305 72 178 4.3 16.5 0.00 0.00 0.00 41 1015.9
20260505191803 72 187 6.1 18.2 0.00 0.00 0.00 42 1016.1
20260505191304 72 196 7.0 18.2 0.00 0.00 0.00 41 1016.0
20260505190804 72 187 6.1 12.2 0.00 0.00 0.00 42 1016.1
20260505190303 71 184 7.0 18.2 0.00 0.00 0.00 43 1016.1
20260505185803 72 197 7.8 18.2 0.00 0.00 0.00 42 1016.0
20260505185305 72 195 7.8 16.5 0.00 0.00 0.00 41 1016.0
20260505184804 73 200 8.7 15.6 0.00 0.00 0.00 42 1016.3
20260505184303 72 191 7.0 15.6 0.00 0.00 0.00 43 1016.4
20260505183715 72 191 7.8 20.0 0.00 0.00 0.00 44 1016.5
20260505183217 72 188 6.1 18.2 0.00 0.00 0.00 43 1016.7
20260505182716 71 189 6.1 13.0 0.00 0.00 0.00 44 1016.6
20260505182216 71 188 6.1 13.0 0.00 0.00 0.00 44 1016.7
20260505181714 71 195 7.0 13.9 0.00 0.00 0.00 45 1017.0
20260505181215 71 195 7.0 13.9 0.00 0.00 0.00 43 1016.9
20260505180714 72 200 6.1 13.9 0.00 0.00 0.00 43 1016.8
20260505180215 72 188 5.2 13.9 0.00 0.00 0.00 45 1016.9
20260505175714 71 188 3.5 13.9 0.00 0.00 0.00 49 1016.9
20260505175214 71 198 5.2 12.2 0.00 0.00 0.00 48 1016.9
20260505174715 71 192 6.1 13.0 0.00 0.00 0.00 46 1016.9
20260505174214 71 190 5.2 13.0 0.00 0.00 0.00 47 1017.0
20260505173714 71 183 4.3 13.0 0.00 0.00 0.00 47 1017.0
20260505173214 70 198 4.3 13.0 0.00 0.00 0.00 48 1017.0
20260505172714 71 193 5.2 9.6 0.00 0.00 0.00 47 1017.0
20260505172215 71 187 3.5 9.6 0.00 0.00 0.00 49 1017.2
20260505171714 70 198 3.5 9.6 0.00 0.00 0.00 48 1017.3
20260505171147 71 188 3.5 10.4 0.00 0.00 0.00 49 1017.3
20260505170625 70 192 4.3 8.7 0.00 0.00 0.00 49 1017.4
20260505170110 70 187 3.5 9.6 0.00 0.00 0.00 49 1017.5
20260505165610 71 194 6.1 11.3 0.00 0.00 0.00 47 1017.5
20260505165110 70 193 2.6 11.3 0.00 0.00 0.00 48 1017.5
20260505164610 70 188 4.3 8.7 0.00 0.00 0.00 49 1017.6
20260505164110 70 178 1.7 8.7 0.00 0.00 0.00 50 1017.7
20260505163610 70 194 5.2 8.7 0.00 0.00 0.00 51 1017.8
20260505163110 70 186 3.5 9.6 0.00 0.00 0.00 52 1017.7
20260505162610 70 185 0.9 9.6 0.00 0.00 0.00 52 1017.9
20260505162110 70 185 4.3 8.7 0.00 0.00 0.00 51 1017.9
20260505161610 70 174 1.7 8.7 0.00 0.00 0.00 54 1017.9
20260505161110 70 194 2.6 8.7 0.00 0.00 0.00 53 1018.1
20260505160610 70 180 0.9 7.0 0.00 0.00 0.00 53 1018.1
20260505160110 69 175 1.7 7.0 0.00 0.00 0.00 56 1018.1
20260505153110 68 185 0.9 7.0 0.00 0.00 0.00 57 1018.3
20260505152610 68 183 0.9 4.3 0.00 0.00 0.00 60 1018.3
20260505152110 67 181 0.9 6.1 0.00 0.00 0.00 61 1018.5
20260505151610 66 180 1.7 9.6 0.00 0.00 0.00 63 1018.3
20260505151110 66 169 2.6 9.6 0.00 0.00 0.00 61 1018.2
20260505150610 65 181 2.6 9.6 0.00 0.00 0.00 61 1018.2
20260505150110 66 181 1.7 9.6 0.00 0.00 0.00 62 1018.4
20260505140610 62 179 0.9 10.4 0.00 0.00 0.00 69 1017.9
20260505140110 61 174 4.3 13.0 0.00 0.00 0.00 66 1017.9
20260505130110 60 0 0.0 7.0 0.00 0.00 0.00 65 1017.8
20260505124540 59 0 0.0 4.3 0.00 0.00 0.00 66 1017.7
20260505123544 59 0 0.0 5.2 0.00 0.00 0.00 63 1017.5
20260505123039 58 0 0.0 8.7 0.00 0.00 0.00 66 1017.5
20260505122543 57 0 0.0 8.7 0.00 0.00 0.00 68 1017.4
20260505122039 57 231 0.9 8.7 0.00 0.00 0.00 68 1017.4
20260505121539 57 209 0.9 8.7 0.00 0.00 0.00 68 1017.3
20260505121040 56 224 0.9 7.0 0.00 0.00 0.00 69 1017.3
20260505120040 55 0 0.0 6.1 0.00 0.00 0.00 70 1017.3
20260505115539 55 0 0.0 6.1 0.00 0.00 0.00 71 1017.3
20260505115039 54 0 0.0 9.6 0.00 0.00 0.00 72 1017.4
20260505114539 54 225 1.7 9.6 0.00 0.00 0.00 74 1017.3
20260505114039 53 237 0.9 17.4 0.00 0.00 0.00 76 1017.2
20260505113538 53 210 1.7 17.4 0.00 0.00 0.00 76 1017.3
20260505113039 53 224 1.7 11.3 0.00 0.00 0.00 76 1017.1
20260505112539 53 0 0.0 11.3 0.00 0.00 0.00 76 1017.2
20260505112039 53 207 0.9 10.4 0.00 0.00 0.00 76 1017.2
20260505111539 53 198 0.9 10.4 0.00 0.00 0.00 76 1017.1
20260505111039 53 213 2.6 9.6 0.00 0.00 0.00 75 1017.1
20260505110539 53 227 0.9 7.8 0.00 0.00 0.00 75 1016.9
20260505102039 53 0 0.0 8.7 0.00 0.00 0.00 73 1016.8
20260505101541 53 0 0.0 8.7 0.00 0.00 0.00 73 1016.9
20260505101039 53 253 0.9 6.1 0.00 0.00 0.00 72 1016.7
20260505100539 54 210 0.9 6.1 0.00 0.00 0.00 71 1016.9
20260505100039 54 214 0.9 8.7 0.00 0.00 0.00 70 1016.8
20260505095544 54 219 1.7 8.7 0.00 0.00 0.00 70 1016.8
20260505095039 54 234 0.9 7.0 0.00 0.00 0.00 70 1016.7
20260505094540 54 219 1.7 9.6 0.00 0.00 0.00 69 1016.7
20260505094039 54 226 0.9 10.4 0.00 0.00 0.00 69 1016.8
20260505093539 54 203 1.7 10.4 0.00 0.00 0.00 68 1016.8